Date String (YYYY-MM-DD hh:mm:ss) UTC,Instrument flags,absolute air pressure of the measurement (hPa),sample flow rate (lpm),inlet stack bypass flow (lpm),air temperature of the measurement (°C),ambient temperature measured by the external sensor (°C),aerosol sample conditioner tube jacket temperature (°C),OPC LED temperature (°C),internal box temperature (°C),relative humidity of the measurement (%),span deviation,mass concentration of particles derived from Lorenz-Mie calculation of OPC scattering (μg/m³),mass concentration of particles derived from Lorenz-Mie calculation of OPC scattering (μg/m³),mass concentration of particles derived from Lorenz-Mie calculation of OPC scattering (μg/m³)
DateTimeUTC,F1_M11,P_M11,Q1_M11,Q2_M11,T1_M11,T2_M11,T3_M11,T4_M11,T5_M11,U1_M11,ZSPAN_M11,X2_M11,X0_M11,X1_M11
2023-10-30 08:00:00,SystemResetWarning,0838.6,5.01,000.00,021.5,021.0,000.0,029.7,022.9,8.9,0000.0,0003.69,0004.40,0003.63
2023-10-30 08:01:00,SystemResetWarning,0838.6,5.01,000.00,021.4,020.8,000.0,029.7,022.8,8.9,0000.0,0003.68,0004.37,0003.62
2023-10-30 08:02:00,SystemResetWarning,0838.6,5.00,000.00,021.4,020.5,000.0,029.7,022.7,8.9,0000.0,0003.68,0004.38,0003.62
2023-10-30 08:03:00,SystemResetWarning,0838.6,5.00,000.00,021.3,020.4,000.0,029.7,022.7,8.9,0000.0,0003.68,0004.37,0003.62
2023-10-30 08:04:00,SystemResetWarning,0838.6,5.00,000.00,021.3,020.2,000.0,029.7,022.5,8.9,0000.0,0003.67,0004.34,0003.61
2023-10-30 08:05:00,SystemResetWarning,0838.6,4.99,000.00,021.2,019.9,000.0,029.7,022.3,9.0,0000.0,0003.67,0004.36,0003.61
2023-10-30 08:06:00,SystemResetWarning,0838.6,5.00,000.00,021.1,019.7,000.0,029.7,022.2,9.0,0000.0,0003.69,0004.44,0003.60
2023-10-30 08:07:00,SystemResetWarning,0838.6,5.00,000.00,021.1,019.6,000.0,029.7,022.2,9.1,0000.0,0003.69,0004.45,0003.59
2023-10-30 08:08:00,SystemResetWarning,0838.6,5.01,000.00,021.1,020.1,000.0,029.6,022.6,9.1,0000.0,0003.69,0004.48,0003.58
2023-10-30 08:09:00,SystemResetWarning,0838.6,5.00,000.00,021.2,021.0,000.0,029.5,023.0,9.0,0000.0,0003.68,0004.41,0003.58
2023-10-30 08:10:00,SystemResetWarning,0838.6,5.00,000.00,021.3,021.4,000.0,029.5,023.1,8.9,0000.0,0003.68,0004.45,0003.57
2023-10-30 08:11:00,SystemResetWarning,0838.6,5.00,000.00,021.3,021.1,000.0,029.6,022.9,8.9,0000.0,0003.67,0004.48,0003.56
2023-10-30 08:12:00,SystemResetWarning,0838.6,4.99,000.00,021.3,020.9,000.0,029.6,022.7,8.9,0000.0,0003.69,0004.57,0003.55
2023-10-30 08:13:00,SystemResetWarning,0838.5,5.00,000.00,021.3,020.7,000.0,029.6,022.6,8.9,0000.0,0003.67,0004.68,0003.54
2023-10-30 08:14:00,SystemResetWarning,0838.5,5.01,000.00,021.2,020.5,000.0,029.6,022.6,8.9,0000.0,0003.67,0004.68,0003.53
2023-10-30 08:15:00,SystemResetWarning,0838.5,5.00,000.00,021.2,020.3,000.0,029.6,022.6,8.9,0000.0,0003.66,0004.70,0003.52
2023-10-30 08:16:00,SystemResetWarning,0838.4,5.00,000.00,021.2,020.2,000.0,029.6,022.5,8.9,0000.0,0003.66,0004.71,0003.52
2023-10-30 08:17:00,SystemResetWarning,0838.4,5.00,000.00,021.2,020.0,000.0,029.6,022.4,9.0,0000.0,0003.64,0004.63,0003.52
2023-10-30 08:18:00,SystemResetWarning,0838.4,5.00,000.00,021.1,019.9,000.0,029.6,022.4,9.0,0000.0,0003.63,0004.61,0003.51
2023-10-30 08:19:00,SystemResetWarning,0838.4,4.99,000.00,021.1,019.9,000.0,029.6,022.4,9.1,0000.0,0003.61,0004.56,0003.51
2023-10-30 08:20:00,SystemResetWarning,0838.4,5.01,000.00,021.2,020.5,000.0,029.5,022.8,9.1,0000.0,0003.60,0004.52,0003.49
2023-10-30 08:21:00,SystemResetWarning,0838.5,5.00,000.00,021.3,021.3,000.0,029.5,023.2,9.0,0000.0,0003.59,0004.50,0003.50
2023-10-30 08:22:00,SystemResetWarning,0838.5,4.99,000.00,021.4,021.4,000.0,029.6,023.1,9.0,0000.0,0003.59,0004.51,0003.49
2023-10-30 08:23:00,SystemResetWarning,0838.5,4.99,000.00,021.4,021.2,000.0,029.6,022.9,8.9,0000.0,0003.60,0004.53,0003.50
2023-10-30 08:24:00,SystemResetWarning,0838.4,5.00,000.00,021.3,020.9,000.0,029.6,022.8,8.9,0000.0,0003.58,0004.34,0003.50
2023-10-30 08:25:00,SystemResetWarning,0838.4,5.00,000.00,021.3,020.7,000.0,029.6,022.7,9.0,0000.0,0003.58,0004.31,0003.50
2023-10-30 08:26:00,SystemResetWarning,0838.4,5.00,000.00,021.3,020.4,000.0,029.6,022.6,9.0,0000.0,0003.57,0004.28,0003.50
2023-10-30 08:27:00,SystemResetWarning,0838.4,5.00,000.00,021.2,020.2,000.0,029.6,022.5,9.0,0000.0,0003.56,0004.24,0003.49
2023-10-30 08:28:00,SystemResetWarning,0838.4,5.00,000.00,021.2,020.1,000.0,029.6,022.5,9.0,0000.0,0003.55,0004.25,0003.48
2023-10-30 08:29:00,SystemResetWarning,0838.4,5.00,000.00,021.1,019.9,000.0,029.6,022.4,9.0,0000.0,0003.56,0004.30,0003.48
2023-10-30 08:30:00,SystemResetWarning,0838.5,5.01,000.00,021.1,019.8,000.0,029.6,022.4,9.0,0000.0,0003.56,0004.29,0003.48
2023-10-30 08:31:00,SystemResetWarning,0838.4,5.01,000.00,021.2,020.3,000.0,029.5,022.8,9.0,0000.0,0003.56,0004.30,0003.48
2023-10-30 08:32:00,SystemResetWarning,0838.4,5.00,000.00,021.3,021.2,000.0,029.5,023.2,8.9,0000.0,0003.56,0004.30,0003.47
2023-10-30 08:33:00,SystemResetWarning,0838.4,4.99,000.00,021.5,021.9,000.0,029.5,023.4,8.8,0000.0,0003.55,0004.28,0003.47
2023-10-30 08:34:00,SystemResetWarning,0838.4,4.99,000.00,021.5,021.7,000.0,029.6,023.3,8.8,0000.0,0003.54,0004.23,0003.46
2023-10-30 08:35:00,SystemResetWarning,0838.4,5.01,000.00,021.5,021.4,000.0,029.6,023.1,8.8,0000.0,0003.54,0004.24,0003.45
2023-10-30 08:36:00,SystemResetWarning,0838.3,5.01,000.00,021.5,021.1,000.0,029.7,022.9,8.8,0000.0,0003.54,0004.27,0003.44
2023-10-30 08:37:00,SystemResetWarning,0838.3,5.00,000.00,021.4,020.8,000.0,029.7,022.8,8.8,0000.0,0003.53,0004.25,0003.43
2023-10-30 08:38:00,SystemResetWarning,0838.3,4.99,000.00,021.4,020.5,000.0,029.7,022.7,8.8,0000.0,0003.52,0004.25,0003.42
2023-10-30 08:39:00,SystemResetWarning,0838.3,5.00,000.00,021.3,020.3,000.0,029.7,022.6,8.8,0000.0,0003.52,0004.25,0003.42
2023-10-30 08:40:00,SystemResetWarning,0838.3,5.00,000.00,021.3,020.1,000.0,029.7,022.5,8.8,0000.0,0003.49,0004.17,0003.40
2023-10-30 08:41:00,SystemResetWarning,0838.2,5.00,000.00,021.2,020.0,000.0,029.7,022.4,8.8,0000.0,0003.49,0004.17,0003.40
2023-10-30 08:42:00,SystemResetWarning,0838.2,5.00,000.00,021.2,019.8,000.0,029.7,022.4,8.8,0000.0,0003.49,0004.20,0003.39
2023-10-30 08:43:00,SystemResetWarning,0838.3,5.00,000.00,021.2,019.8,000.0,029.6,022.5,8.9,0000.0,0003.49,0004.22,0003.39
2023-10-30 08:44:00,SystemResetWarning,0838.3,5.01,000.00,021.2,020.4,000.0,029.6,022.9,8.8,0000.0,0003.49,0004.20,0003.39
2023-10-30 08:45:00,SystemResetWarning,0838.3,5.00,000.00,021.4,021.2,000.0,029.6,023.2,8.8,0000.0,0003.47,0004.15,0003.38
2023-10-30 08:46:00,SystemResetWarning,0838.2,4.99,000.00,021.4,021.3,000.0,029.6,023.2,8.7,0000.0,0003.47,0004.15,0003.37
2023-10-30 08:47:00,SystemResetWarning,0838.2,5.00,000.00,021.4,021.1,000.0,029.7,023.0,8.7,0000.0,0003.46,0004.13,0003.37
2023-10-30 08:48:00,SystemResetWarning,0838.2,5.00,000.00,021.4,020.9,000.0,029.7,022.8,8.8,0000.0,0003.47,0004.18,0003.37
2023-10-30 08:49:00,SystemResetWarning,0838.2,5.00,000.00,021.3,020.6,000.0,029.7,022.7,8.8,0000.0,0003.47,0004.21,0003.37
2023-10-30 08:50:00,SystemResetWarning,0838.2,5.00,000.00,021.3,020.4,000.0,029.7,022.6,8.8,0000.0,0003.44,0004.11,0003.36
2023-10-30 08:51:00,SystemResetWarning,0838.2,5.00,000.00,021.3,020.2,000.0,029.7,022.5,8.8,0000.0,0003.45,0004.13,0003.36
2023-10-30 08:52:00,SystemResetWarning,0838.2,5.01,000.00,021.2,020.0,000.0,029.7,022.4,8.8,0000.0,0003.45,0004.09,0003.36
2023-10-30 08:53:00,SystemResetWarning,0838.2,5.00,000.00,021.2,019.9,000.0,029.7,022.3,8.9,0000.0,0003.44,0004.06,0003.36
2023-10-30 08:54:00,SystemResetWarning,0838.2,5.01,000.00,021.1,020.0,000.0,029.6,022.5,8.9,0000.0,0003.43,0004.07,0003.36
2023-10-30 08:55:00,SystemResetWarning,0838.2,5.01,000.00,021.3,020.8,000.0,029.6,023.0,8.8,0000.0,0003.43,0004.10,0003.36
2023-10-30 08:56:00,SystemResetWarning,0838.2,4.98,000.00,021.4,021.4,000.0,029.6,023.2,8.8,0000.0,0003.44,0004.16,0003.34
2023-10-30 08:57:00,SystemResetWarning,0838.2,4.99,000.00,021.4,021.3,000.0,029.6,023.1,8.7,0000.0,0003.44,0004.12,0003.34
2023-10-30 08:58:00,SystemResetWarning,0838.2,5.01,000.00,021.4,021.1,000.0,029.6,022.9,8.7,0000.0,0003.42,0004.06,0003.32
2023-10-30 08:59:00,SystemResetWarning,0838.1,5.01,000.00,021.3,020.8,000.0,029.7,022.7,8.7,0000.0,0003.41,0004.03,0003.31
